Regional Weather Roundup
Issued by NWS Upton, NY

Current Version | Previous Version | Text Only | Print | Product List | Glossary Off
Versions: 1 2 3 4 5 6 7 8 9 10 11 12 13 14 15 16 17 18 19 20 21 22 23 24 25 26 27 28 29 30 31 32 33 34 35 36 37 38 39 40 41 42 43 44 45 46 47 48 49 50
000 ASUS41 KOKX 052005 RWROKX REGIONAL WEATHER ROUNDUP NATIONAL WEATHER SERVICE NEW YORK NY 300 PM EST THU MAR 05 2015 NOTE: "FAIR" INDICATES FEW OR NO CLOUDS BELOW 12,000 FEET WITH NO SIGNIFICANT WEATHER AND/OR OBSTRUCTIONS TO VISIBILITY. NYZ071-072-176-178-NJZ106-104-052100- NEW YORK CITY METRO AREA CITY SKY/WX TMP DP RH WIND PRES REMARKS CENTRAL PARK LGT SNOW 21 16 81 W8 30.19R VSB 3/4 WCI 11 LAGUARDIA APRT LGT SNOW 25 16 68 NW6 30.18R WCI 18 KENNEDY INTL SNOW 24 18 77 NW10 30.19R VSB 1/2 WCI 14 NEWARK/LIBERTY LGT SNOW 25 19 80 W12G17 30.19R VSB 1 WCI 14 BRNX BOT. GARD N/A N/A N/A N/A W7 30.18S TETERBORO LGT SNOW 23 16 74 W6 30.17R WCI 16 $$ NYZ177-179-078>081-052100- LONG ISLAND NEW YORK CITY SKY/WX TMP DP RH WIND PRES REMARKS FARMINGDALE LGT SNOW 23 17 78 N5 30.18R WCI 17 ISLIP LGT SNOW 22 15 75 NW9 30.14R WCI 12 SHIRLEY LGT SNOW 22 18 85 N9 30.17R FOG WCI 12 WESTHAMPTON SNOW 22 18 85 NW13 30.16R VSB 1/2 WCI 10 MONTAUK POINT N/A 25 21 85 NW12 30.14R WCI 14 $$ NYZ052-065-067-052100- HUDSON VALLEY CITY SKY/WX TMP DP RH WIND PRES REMARKS WHITE PLAINS LGT SNOW 22 15 75 W6 30.12R FOG WCI 14 NEWBURGH CLOUDY 23 7 50 NE7 30.14R WCI 15 MONTGOMERY CLOUDY 23 2 40 NW10 30.13S WCI 12 POUGHKEEPSIE CLOUDY 24 3 40 N9 30.16S WCI 14 ALBANY CLOUDY 20 5 52 W16 30.19R WCI 6 $$ NJZ001-105-106-008-010-013-015-019>022-104-052100- NEW JERSEY CITY SKY/WX TMP DP RH WIND PRES REMARKS NEWARK/LIBERTY LGT SNOW 25 19 80 W12G17 30.19R VSB 1 WCI 14 TETERBORO LGT SNOW 23 16 74 W6 30.17R WCI 16 CALDWELL FLURRIES 22 11 62 W15 30.17R WCI 9 MORRISTOWN CLOUDY 23 14 68 NW8 30.17R WCI 14 SOMERVILLE LGT SNOW 21 15 78 NW8 30.19R VSB 3/4 WCI 11 SUSSEX CLOUDY 21 7 54 CALM 30.15R ANDOVER N/A 18 12 77 N5 30.16R WCI 11 TRENTON SNOW 20 16 84 N9 30.19S VSB 1/2 WCI 9 MILLVILLE HVY SNOW 26 32 100 N14G22 30.17S VSB 1/4 WCI 14 ATLANTIC CITY SNOW 26 24 92 N14 30.15R VSB 1/4 WCI 14 WRIGHTSTOWN BLWGSNOW 21 19 91 N14 30.17R VSB 1 WCI 8 TOMS RIVER CLOUDY 25 21 86 N14G21 30.18R VSB 1 WCI 13 BELMAR CLOUDY 23 16 74 N10 30.17R VSB 1 WCI 12 $$ PAZ047>061-062-071-052100- EASTERN PENNSYLVANIA CITY SKY/WX TMP DP RH WIND PRES REMARKS PHILADELPHIA HVY SNOW 22 19 89 N13 30.21S VSB 1/4 WCI 10 ALLENTOWN LGT SNOW 19 12 74 NW9 30.20R VSB 1 WCI 8 SCRANTON CLOUDY 18 3 52 N10 30.15F WCI 6 $$ CTZ002-004>006-009-010-012-RIZ004-006-007-MAZ004-011-015-052100- SOUTHERN NEW ENGLAND IN CT CITY SKY/WX TMP DP RH WIND PRES REMARKS BRADLEY INTL CLOUDY 26 5 40 NW14 30.11R WCI 14 HARTFORD CLOUDY 25 6 44 VRB7G18 30.14R WCI 17 DANBURY LGT SNOW 20 7 57 NW9 30.16R WCI 9 WTRBRY/OXFORD LGT SNOW 21 1 42 N13G18 30.12R FOG WCI 9 BRIDGEPORT CLOUDY 24 8 50 NW8 30.16R WCI 15 MERIDEN CLOUDY 24 5 44 NW12 30.15R WCI 13 NEW HAVEN CLOUDY 23 16 74 CALM 30.15R CHESTER FAIR 23 18 80 CALM 30.11S GROTON SNOW 22 20 92 NW8 30.14R VSB 1/2 WCI 12 WILLIMANTIC CLOUDY 27 8 44 N6 30.11R WCI 20 IN RI CITY SKY/WX TMP DP RH WIND PRES REMARKS PROVIDENCE LGT SNOW 25 20 81 NE3 30.11S VSB 1 BLOCK ISLAND CLOUDY 25 19 80 NW9 30.10R VSB 1 WCI 15 WESTERLY SNOW 24 22 91 VRB6 30.13R VSB 1/2 WCI 17 IN MA CITY SKY/WX TMP DP RH WIND PRES REMARKS BOSTON CLOUDY 26 5 40 N13 30.11R WCI 15 WORCESTER CLOUDY 22 0 38 NW13 30.05R WCI 10 WESTFIELD CLOUDY 25 4 40 NW15G21 30.11R WCI 13 PROVINCETOWN CLOUDY 25 19 80 N8 30.08F WCI 16 NANTUCKET LGT SNOW 27 24 89 N15 30.07F VSB 1 WCI 15 $$ ANZ330-335-338-340-345-350-353-355-052100- COASTAL MARINE OBSERVATIONS STATION/POSITION TIME SKY/WX TEMP WIND PRES VSBY WAVE AIR SEA DIR/SP/G HT/PER (UTC) (F) (DEG/KT/KT) (MB) (MI) (FT/S) NY HARB ENTRANCE 2000 24 38 330/ 17/ 19 1021.3 3/ 4 4S FIRE IS 2000 32 N/A 3/ 8 20S FIRE ISLAND 1900 36 1020.5 4/ 5 23SW MTP 2000 N/A 4/ 4 HUDSON CANYON NOT AVBL EXECUTION ROCKS NOT AVBL WESTERN LI SOUND NOT AVBL CENTRAL LI SOUND NOT AVBL EASTERN LI SOUND NOT AVBL ROBBINS REEF 2000 22 270/ 12/ 14 1020.9 $$ >>>>>>>>>>>>>>>>>>>>>>>>>>>> KEY <<<<<<<<<<<<<<<<<<<<<<<<<<< > < > SKY/WX - SKY CONDITION/PRESENT WEATHER < > TMP - TEMPERATURE IN FAHRENHEIT < > DP - DEWPOINT IN FAHRENHEIT < > RH - RELATIVE HUMIDITY IN PERCENT < > WIND - DIRECTION AND SPEED IN MPH < > PRES - MEAN SEA LEVEL PRESSURE IN INCHES OF HG < > WCI - WIND CHILL INDEX < > VSB - VISIBILITY IN MILES < > HX - HEAT INDEX < > TC - TEMPERATURE IN CELSIUS < > VRB - VARIABLE WIND DIRECTION < > < >>>>>>>>>>>>>>>>>>>>>>>>>>>> KEY <<<<<<<<<<<<<<<<<<<<<<<<<<<

USA.gov is the U.S. government's official web portal to all federal, state and local government web resources and services.